When you browse on this site, cookies collect data to enhance your experience and personalize the content and advertising you see.
Visit our Privacy Policy to learn more. By continuing to use the site, you agree to this use of cookies and data.
  • En España
  • Lista de países
  • Para 7 días
  • Temperatura del agua
  • El tiempo en el mapa
  • Informadores
  • user-avatar
    Iniciar sesión

    Tiempo cada hora Freire

    Hoy, 24 Enero, Viernes

    Tiempo Temperatura Precipitaciones Viento Presión Humedad
    00:00 +11°C° 0 mm 0 mps 754 mmHg 98%
    01:00 +10°C° 0 mm 0 mps 754 mmHg 98%
    02:00 +10°C° 0 mm 0 mps 754 mmHg 98%
    03:00 +10°C° 0 mm 0 mps 754 mmHg 98%
    04:00 +10°C° 0 mm 0 mps 754 mmHg 97%
    05:00 +11°C° 0 mm 0 mps 754 mmHg 92%
    06:00 +13°C° 0 mm 0 mps 754 mmHg 86%
    07:00 +14°C° 0 mm 0 mps 754 mmHg 81%
    08:00 +20°C° 0 mm 1 mps 754 mmHg 66%
    09:00 +23°C° 0 mm 1 mps 753 mmHg 50%
    10:00 +26°C° 0 mm 2 mps 753 mmHg 35%
    11:00 +27°C° 0 mm 2 mps 753 mmHg 32%
    12:00 +28°C° 0 mm 3 mps 753 mmHg 30%
    13:00 +29°C° 0 mm 3 mps 753 mmHg 27%
    14:00 +28°C° 0 mm 4 mps 753 mmHg 29%
    15:00 +26°C° 0 mm 4 mps 753 mmHg 31%
    16:00 +25°C° 0 mm 4 mps 753 mmHg 32%
    17:00 +22°C° 0 mm 3 mps 753 mmHg 41%
    18:00 +19°C° 0 mm 3 mps 753 mmHg 50%
    19:00 +17°C° 0 mm 2 mps 754 mmHg 59%
    20:00 +15°C° 0 mm 1 mps 754 mmHg 69%
    21:00 +13°C° 0 mm 1 mps 754 mmHg 79%
    22:00 +11°C° 0 mm 0 mps 754 mmHg 89%
    23:00 +10°C° 0 mm 0 mps 754 mmHg 90%

    Mañana, 25 Enero, Sábado

    Tiempo Temperatura Precipitaciones Viento Presión Humedad
    00:00 +10°C° 0 mm 0 mps 754 mmHg 91%
    01:00 +10°C° 0 mm 0 mps 754 mmHg 91%
    02:00 +10°C° 0 mm 0 mps 753 mmHg 90%
    03:00 +10°C° 0 mm 0 mps 753 mmHg 88%
    04:00 +10°C° 0 mm 0 mps 753 mmHg 87%
    05:00 +12°C° 0 mm 0 mps 753 mmHg 79%
    06:00 +14°C° 0 mm 0 mps 753 mmHg 70%
    07:00 +16°C° 0 mm 0 mps 754 mmHg 62%
    08:00 +21°C° 0 mm 1 mps 753 mmHg 55%
    09:00 +24°C° 0 mm 2 mps 753 mmHg 48%
    10:00 +26°C° 0 mm 2 mps 753 mmHg 41%
    11:00 +28°C° 0 mm 3 mps 753 mmHg 39%
    12:00 +29°C° 0 mm 3 mps 753 mmHg 36%
    13:00 +30°C° 0 mm 4 mps 752 mmHg 34%
    14:00 +29°C° 0 mm 4 mps 752 mmHg 38%
    15:00 +29°C° 0 mm 4 mps 752 mmHg 42%
    16:00 +28°C° 0 mm 4 mps 752 mmHg 45%
    17:00 +25°C° 0 mm 3 mps 753 mmHg 55%
    18:00 +22°C° 0 mm 3 mps 753 mmHg 65%
    19:00 +20°C° 0 mm 2 mps 753 mmHg 75%
    20:00 +18°C° 0 mm 2 mps 754 mmHg 82%
    21:00 +18°C° 0 mm 1 mps 754 mmHg 90%
    22:00 +15°C° 0 mm 1 mps 754 mmHg 98%
    23:00 +15°C° 0 mm 1 mps 754 mmHg 98%

    Pasado mañana, 26 Enero, Domingo

    Tiempo Temperatura Precipitaciones Viento Presión Humedad
    00:00 +14°C° 0 mm 0 mps 754 mmHg 97%
    01:00 +14°C° 0 mm 0 mps 754 mmHg 97%
    02:00 +14°C° 0 mm 0 mps 754 mmHg 97%
    03:00 +14°C° 0 mm 0 mps 754 mmHg 96%
    04:00 +15°C° 0 mm 0 mps 754 mmHg 95%
    05:00 +15°C° 0 mm 0 mps 754 mmHg 92%
    06:00 +16°C° 0 mm 0 mps 754 mmHg 89%
    07:00 +18°C° 0 mm 1 mps 754 mmHg 86%
    08:00 +21°C° 0 mm 1 mps 754 mmHg 73%
    09:00 +23°C° 0 mm 1 mps 754 mmHg 60%
    10:00 +26°C° 0 mm 1 mps 754 mmHg 47%
    11:00 +27°C° 0 mm 2 mps 754 mmHg 42%
    12:00 +29°C° 0 mm 2 mps 754 mmHg 36%
    13:00 +30°C° 0 mm 3 mps 754 mmHg 31%
    14:00 +29°C° 0 mm 3 mps 753 mmHg 33%
    15:00 +28°C° 0 mm 4 mps 753 mmHg 36%
    16:00 +27°C° 0 mm 4 mps 753 mmHg 38%
    17:00 +25°C° 0 mm 3 mps 753 mmHg 46%
    18:00 +21°C° 0 mm 3 mps 753 mmHg 53%
    19:00 +18°C° 0 mm 2 mps 754 mmHg 61%
    20:00 +16°C° 0 mm 1 mps 754 mmHg 70%
    21:00 +14°C° 0 mm 1 mps 754 mmHg 79%
    22:00 +11°C° 0 mm 0 mps 755 mmHg 88%
    23:00 +10°C° 0 mm 0 mps 754 mmHg 90%

    27 Enero, Lunes

    Tiempo Temperatura Precipitaciones Viento Presión Humedad
    00:00 +10°C° 0 mm 0 mps 754 mmHg 92%
    01:00 +10°C° 0 mm 0 mps 754 mmHg 94%
    02:00 +9°C° 0 mm 0 mps 753 mmHg 95%
    03:00 +9°C° 0 mm 0 mps 753 mmHg 95%
    04:00 +9°C° 0 mm 0 mps 753 mmHg 96%
    05:00 +10°C° 0 mm 0 mps 753 mmHg 87%
    06:00 +12°C° 0 mm 0 mps 753 mmHg 79%
    07:00 +14°C° 0 mm 0 mps 753 mmHg 70%
    08:00 +20°C° 0 mm 1 mps 753 mmHg 57%
    09:00 +23°C° 0 mm 1 mps 752 mmHg 44%
    10:00 +26°C° 0 mm 2 mps 752 mmHg 31%
    11:00 +28°C° 0 mm 2 mps 752 mmHg 27%
    12:00 +29°C° 0 mm 3 mps 752 mmHg 24%
    13:00 +30°C° 0 mm 3 mps 752 mmHg 20%
    14:00 +29°C° 0 mm 4 mps 751 mmHg 22%
    15:00 +28°C° 0 mm 4 mps 751 mmHg 24%
    16:00 +27°C° 0 mm 4 mps 751 mmHg 26%
    17:00 +24°C° 0 mm 3 mps 752 mmHg 37%
    18:00 +21°C° 0 mm 3 mps 752 mmHg 48%
    19:00 +18°C° 0 mm 2 mps 752 mmHg 58%
    20:00 +16°C° 0 mm 1 mps 752 mmHg 70%
    21:00 +15°C° 0 mm 1 mps 752 mmHg 81%
    22:00 +13°C° 0 mm 1 mps 752 mmHg 93%
    23:00 +12°C° 0 mm 0 mps 752 mmHg 94%

    28 Enero, Martes

    Tiempo Temperatura Precipitaciones Viento Presión Humedad
    00:00 +12°C° 0 mm 0 mps 752 mmHg 96%
    01:00 +11°C° 0 mm 0 mps 751 mmHg 97%
    02:00 +12°C° 0 mm 0 mps 751 mmHg 96%
    03:00 +12°C° 0 mm 0 mps 751 mmHg 96%
    04:00 +12°C° 0 mm 0 mps 751 mmHg 95%
    05:00 +13°C° 0 mm 0 mps 751 mmHg 92%
    06:00 +14°C° 0 mm 0 mps 751 mmHg 89%
    07:00 +15°C° 0 mm 0 mps 751 mmHg 86%
    08:00 +19°C° 0 mm 1 mps 751 mmHg 75%
    09:00 +22°C° 0 mm 1 mps 751 mmHg 65%
    10:00 +24°C° 0 mm 2 mps 751 mmHg 54%
    11:00 +25°C° 0 mm 3 mps 751 mmHg 48%
    12:00 +26°C° 0 mm 4 mps 751 mmHg 42%
    13:00 +26°C° 0 mm 4 mps 750 mmHg 36%
    14:00 +25°C° 0 mm 4 mps 750 mmHg 40%
    15:00 +23°C° 0 mm 5 mps 750 mmHg 43%
    16:00 +22°C° 0 mm 5 mps 750 mmHg 46%
    17:00 +20°C° 0 mm 4 mps 750 mmHg 55%
    18:00 +18°C° 0 mm 3 mps 751 mmHg 64%
    19:00 +16°C° 0 mm 2 mps 751 mmHg 73%
    20:00 +15°C° 0 mm 2 mps 751 mmHg 81%
    21:00 +13°C° 0 mm 1 mps 752 mmHg 88%
    22:00 +12°C° 0 mm 1 mps 752 mmHg 96%
    23:00 +11°C° 0 mm 1 mps 752 mmHg 96%

    29 Enero, Miércoles

    Tiempo Temperatura Precipitaciones Viento Presión Humedad
    00:00 +10°C° 0 mm 1 mps 752 mmHg 97%
    01:00 +10°C° 0 mm 1 mps 752 mmHg 97%
    02:00 +9°C° 0 mm 1 mps 752 mmHg 97%
    03:00 +8°C° 0 mm 1 mps 752 mmHg 97%
    04:00 +8°C° 0 mm 1 mps 752 mmHg 97%
    05:00 +9°C° 0 mm 1 mps 752 mmHg 91%
    06:00 +10°C° 0 mm 1 mps 753 mmHg 85%
    07:00 +11°C° 0 mm 1 mps 753 mmHg 79%
    08:00 +14°C° 0 mm 1 mps 753 mmHg 66%
    09:00 +16°C° 0 mm 2 mps 753 mmHg 52%
    10:00 +19°C° 0 mm 2 mps 753 mmHg 39%
    11:00 +20°C° 0 mm 3 mps 753 mmHg 36%
    12:00 +21°C° 0 mm 3 mps 752 mmHg 32%
    13:00 +22°C° 0 mm 3 mps 752 mmHg 29%
    14:00 +22°C° 0 mm 3 mps 752 mmHg 32%
    15:00 +21°C° 0 mm 4 mps 752 mmHg 35%
    16:00 +21°C° 0 mm 4 mps 752 mmHg 38%
    17:00 +19°C° 0 mm 3 mps 753 mmHg 45%
    18:00 +16°C° 0 mm 3 mps 753 mmHg 53%
    19:00 +14°C° 0 mm 2 mps 754 mmHg 60%
    20:00 +12°C° 0 mm 1 mps 754 mmHg 70%
    21:00 +10°C° 0 mm 1 mps 755 mmHg 80%
    22:00 +8°C° 0 mm 0 mps 755 mmHg 89%
    23:00 +7°C° 0 mm 0 mps 755 mmHg 90%
    Mostrar más